Voltar ao catálogo

CZ-6A DEB

AtivoPO
NORAD 60795·DEBRIS·🇨🇳 China

Lançado Aug 6, 2024 de Taiyuan Satellite Launch Center

Loading…

Próximas Passagens (próximas 24 horas)

TLE

AtualizadoSource: Space-Track

Época: Sep 14, 2026, 11:48 UTC

1 60795U 24140FW  26257.49210387  .00000434  00000-0  20727-3 0  9996
2 60795  89.0046 265.8865 0065093 280.5886  78.7974 14.16478028106512

Acompanhe CZ-6A DEB em tempo real com AllMySat

Download on the App Store